Location: Unspecified
(38.9820°N, 94.4650°W)
Time: 10:19:14
(UTC-05:00)

Resurs 1-4 Rocket - Visible Passes

Search period start: 04 July 2015 00:00
Search period end: 14 July 2015 00:00
Orbit: 801 x 814 km, 98.4° (Epoch: 03 July)

Date Brightness Start Highest point End Pass type
(mag) Time Alt. Az. Time Alt. Az. Time Alt. Az.
04 Jul 2.2 04:46:14 10° NNE 04:51:34 84° E 04:56:51 10° SSW visible
05 Jul 2.9 04:21:54 10° NNE 04:27:02 49° E 04:32:08 10° S visible
06 Jul 3.7 03:57:51 10° NE 04:02:24 29° E 04:06:58 10° SSE visible
07 Jul 4.4 03:34:20 10° NE 03:37:37 17° E 03:41:07 10° SE visible
07 Jul 2.4 05:12:44 10° N 05:17:55 55° WNW 05:23:02 10° SSW visible
08 Jul 2.1 04:48:09 10° NNE 04:53:28 89° ESE 04:58:45 10° SSW visible
09 Jul 2.8 04:23:47 10° NNE 04:28:57 52° E 04:34:04 10° S visible
10 Jul 3.7 03:59:42 10° NE 04:04:18 31° E 04:08:57 10° SSE visible
11 Jul 4.4 03:36:06 10° NE 03:39:33 18° E 03:43:11 10° SE visible
11 Jul 2.4 05:14:40 10° N 05:19:48 52° WNW 05:24:53 10° SSW visible
12 Jul 2.1 04:50:03 10° NNE 04:55:22 87° WNW 05:00:38 10° SSW visible
13 Jul 2.7 04:25:40 10° NNE 04:30:51 55° E 04:36:00 10° S visible
